User: anonymous   Login
Location: Unspecified
(0.0000°N, 0.0000°E)
Time: 06:44:51
(UTC+00:00)
Language:

Eutelsat I F4 - Orbit

View from above orbital plane
View from above orbital plane
View from above satellite
View from above satellite

Ground track
Ground track

The orbit data is extracted from the following two-line orbital elements,

1 18351U 87078B   18202.63412824 -.00000048 +00000-0 +00000-0 0  9994
2 18351 015.4651 005.6187 0011897 325.8982 052.9281 00.98688204098269
Epoch (UTC): 21 July 2018 15:13:08
Eccentricity: 0.0011897
inclination: 15.4651°
perigee height: 36185 km
apogee height: 36287 km
right ascension of ascending node: 5.6187°
argument of perigee: 325.8982°
revolutions per day: 0.98688204
mean anomaly at epoch: 52.9281°
orbit number at epoch: 9826

The dashed part of the orbit path shows where the satellite is in the earth's shadow,  

DLR